Victor, MT (59875)

4:48 PM MST on February 06, 2016 (GMT -0700)
Dutch Hill | | Change Station
CLOSE
Current Station
Personal Weather Station
Location: Hamilton, MT
Elevation: 3668 ft
Nearby Weather Stations

Elev 3668 ft 46.31 °N, 114.18 °W | Updated 1 minute ago

Overcast
Overcast
43.0 °F
Feels Like 43 °F
N
0.0
Wind Variable Wind from SE
Gusts 0.0 mph

Today
High -- | Low -- °F
--% Chance of Precip.
Yesterday
High -- | Low -- °F
Precip. -- in
Pressure 30.35 in
Visibility 10.0 miles
Clouds Mostly Cloudy 6000 ft
Mostly Cloudy 7500 ft
Windchill 43 °F
Dew Point 21 °F
Humidity 41%
Rainfall Not available.
Snow Depth Not available.
7:53 AM 5:48 PM
Waning Crescent, 3% visible
METAR KMSO 062253Z 28008KT 10SM BKN060 BKN075 03/M03 A3029 RMK AO2 SLP277 T00331033 $
Pressure 30.35 in
Visibility 10.0 miles
Clouds Mostly Cloudy 6000 ft
Mostly Cloudy 7500 ft
Windchill 43 °F
Dew Point 21 °F
Humidity 41%
Rainfall Not available.
Snow Depth Not available.
7:53 AM 5:48 PM
Waning Crescent, 3% visible
METAR KMSO 062253Z 28008KT 10SM BKN060 BKN075 03/M03 A3029 RMK AO2 SLP277 T00331033 $

10-Day Weather Forecast

Almanac

Astronomy

Feb. 06, 2016 Rise Set
Actual Time
Civil Twilight
Nautical Twilight
Astronomical Twilight
Moon
Length of Visible Light
Length of Day
Tomorrow will be .
, % of the Moon is Illuminated

Today's Extremes

State Highs State Lows

Community

WunderPhotos

Upload Photos

1,891,098 photos uploaded!

WunderBlog® & News

Nearby

Air Quality

  Air Quality AQ Index Pollutant
Not available.

Snow Depth

Station Depth Elevation

Earthquake Activity

City Distance Mag. Time & Date
Minimum magnitude displayed is 2.5.

Coastal Water Temperatures

Place Temperature

Stations

Nearby Weather Stations

Station Location Temp. Windchill Dew Point Humidity Wind Precip. Elev Updated Type
                   

Watches & Warnings

There are currently no watches in effect.